Regional Weather Roundup
Issued by NWS Sterling, VA

Home | Current Version | Previous Version | Text Only | Print | Product List | Glossary Off
Versions: 1 2 3 4 5 6 7 8 9 10 11 12 13 14 15 16 17 18 19 20 21 22 23 24 25 26 27 28 29 30 31 32 33 34 35 36 37 38 39 40 41 42 43 44 45 46 47 48 49 50

000
ASUS41 KLWX 191311
RWRLWX

REGIONAL WEATHER ROUNDUP
NATIONAL WEATHER SERVICE BALTIMORE MD/WASHINGTON DC
900 AM EDT THU APR 19 2018

Note: "FAIR" indicates few or no clouds below 12,000 feet
with no significant weather and/or obstructions to visibility.
 TC=TEMPERATURE CELSIUS

 * =Non NWS site. Station does not report precipitation (e.g. rain,
    snow, etc.), thunder, or fog.

DCZ001-MDZ009-015-VAZ040>042-051-053>054-191400-
WASHINGTON METRO

CITY           SKY/WX    TMP DP  RH WIND       PRES   REMARKS
WASHINGTON NAT LGT RAIN  51  43  74 W9        29.74R
DULLES         PTSUNNY   48  46  93 CALM      29.73R
ANDREWS AFB    LGT RAIN  50  43  77 W6        29.72R
FT BELVOIR     LGT RAIN  50  45  81 N6        29.72R
QUANTICO       LGT RAIN  50  47  89 NW6       29.75R
COLLEGE PARK*  CLOUDY    50  43  77 CALM      29.73R
LEESBURG*      CLOUDY    50  46  87 CALM      29.73S
MANASSAS*      LGT RAIN  48  46  93 S3        29.74R
GAITHERSBURG*  CLOUDY    48  42  80 W7        29.73R

$$

MDZ006>007-011-014-191400-
BALTIMORE METRO

CITY           SKY/WX    TMP DP  RH WIND       PRES   REMARKS
BWI AIRPORT    CLOUDY    51  41  68 W8        29.70R
MD SCIENCE CTR   N/A     53  39  59 MISG      29.71R
MARTIN STATE   CLOUDY    52  43  71 W7        29.71R
ANNAPOLIS      LGT RAIN  53  42  66 W7        29.70R
FORT MEADE*    CLOUDY    50  43  76 W7        29.74R

$$

MDZ012-015-019>023-191400-
MARYLAND EASTERN SHORE

CITY           SKY/WX    TMP DP  RH WIND       PRES   REMARKS
OCEAN CITY     FAIR      54  43  66 NE9G17    29.67F
SALISBURY      PTSUNNY   52  43  71 E3        29.68R
BAY BRIDGE AP* LGT RAIN  50  45  81 W3        29.70S
CAMBRIDGE*     PTSUNNY   52  46  82 W7        29.71R
EASTON*        PTSUNNY   52  43  71 NW6       29.72R

$$

MDZ017>025-191400-
SOUTHERN MARYLAND

CITY           SKY/WX    TMP DP  RH WIND       PRES   REMARKS
PATUXENT RIVER LGT RAIN  53  46  77 W9        29.73R
ST INIGOES     LGT RAIN  50  45  83 W7        29.73R
LEONARDTOWN*   CLOUDY    48  45  87 W3        29.74R

$$

MDZ003>005-191400-
NORTH CENTRAL MARYLAND

CITY           SKY/WX    TMP DP  RH WIND       PRES   REMARKS
FREDERICK*     CLOUDY    50  48  93 MISG      29.74S
HAGERSTOWN APT PTSUNNY   49  45  86 W3        29.71R
WESTMINSTER*   PTSUNNY   46  45  93 CALM      29.71R FOG

$$

MDZ501>502-191400-
WESTERN MARYLAND

CITY           SKY/WX    TMP DP  RH WIND       PRES   REMARKS
OAKLAND*       PTSUNNY   36  32  87 W15G30    29.73R WCI  26
CUMBERLAND*    PTSUNNY   52  39  62 W13G28    29.78R

$$

VAZ025>031-191400-
SHENANDOAH VALLEY

CITY           SKY/WX    TMP DP  RH WIND       PRES   REMARKS
WINCHESTER*    FAIR      54  41  62 W18G25    29.72F
FRONT ROYAL*   FAIR      52  43  71 CALM      29.71S
LURAY*         PTSUNNY   54  48  82 CALM      29.72S
NEW MARKET*    FAIR      53  50  89 S3        29.72S
STAUNTON*      CLOUDY    51  48  89 CALM      29.76S
WAYNESBORO*    PTSUNNY   54  50  86 SW6       29.75S

$$

WVZ021-048>050-054>055-191400-
EASTERN WEST VIRGINIA PANHANDLE

CITY           SKY/WX    TMP DP  RH WIND       PRES   REMARKS
MARTINSBURG    CLOUDY    54  47  77 W10       29.71R
PETERSBURG*    DRIZZLE   50  39  64 W17G23    29.75R

$$

VAZ036>039-050-191400-
CENTRAL FOOTHILLS

CITY           SKY/WX    TMP DP  RH WIND       PRES   REMARKS
CHARLOTTESVILL FAIR      54  50  86 S6        29.73R
CULPEPER*      CLOUDY    49  46  89 CALM      29.74R
ORANGE*        CLOUDY    48  46  93 CALM      29.74S
GORDONSVILLE*  CLOUDY    50  49  99 SW3       29.74R
WARRENTON*     LGT RAIN  49  45  85 CALM      29.73S

$$

VAZ055>057-191400-
NORTH AND CENTRAL PIEDMONT

CITY           SKY/WX    TMP DP  RH WIND       PRES   REMARKS
FREDERICKSBRG* LGT RAIN  49  49 100 CALM      29.73S
STAFFORD*      LGT RAIN  49  49 100 CALM      29.77S

$$

NCZ024-NYZ072-PAZ021-071-VAZ022-071-191400-
OTHER REGIONAL OBSERVATIONS

CITY           SKY/WX    TMP DP  RH WIND       PRES   REMARKS
NEW YORK CITY  CLOUDY    43  38  82 VRB7G18   29.72R
PHILADELPHIA   CLOUDY    51  36  56 NW13      29.69R
PITTSBURGH     SNOW      33  32  96 NW16      29.86R VSB 1/2 WCI  23
ROANOKE        PTSUNNY   55  42  61 NW22G36   29.84R
RICHMOND       PTSUNNY   53  47  79 N6        29.74S
RALEIGH        FAIR      70  54  56 W9        29.76R

$$

ANZ530>537-191400-
MARINE OBSERVATIONS

STATION/POSITION TIME  TEMP    WIND        PRES
                       AIR SEA DIR/SP/G
                 (UTC) (F)     (DEG/KT/KT) (MB)
THOMAS PT LIGHT  1300   51 50  270/ 11/ 12 1007.3R
BALT KEY BRIDGE  1242   51     260/  7/  8 1005.4R
COVE POINT       1242   51     280/  6/ 10 1006.9R
LEWISETTA        1242   51 55  300/  5/  7 1006.6R
SOLOMONS ISLAND  1242   50 52  250/  7/  9 1006.3R
PINEY POINT      1242          310/  9/ 10   N/A

$$




USA.gov is the U.S. government's official web portal to all federal, state and local government web resources and services.